C/2019 N1 ( ATLAS )

Japanese version
Home page
Updated on January 23, 2021

---------------------------------------------------------------------

* Profile

Discovery Date July 5, 2019
Magnitude 18.6 mag
Discoverer Asteroid Terrestrial-Impact Last Alert System (ATLAS) search program

* Pictures

* Orbital Elements

Epoch 2020 Dec. 17.0 TT = JDT 2459200.5
T 2020 Dec. 1.80600 TT                                  Rudenko
q   1.7046094            (2000.0)            P               Q
z  +0.0000485      Peri.  193.44648     -0.93823223     +0.25612171
 +/-0.0000011      Node    13.57323     -0.14505799     +0.31926273
e   0.9999174      Incl.   82.42756     -0.31413129     -0.91239957
From 1525 observations 2019 June 10-2020 Sept. 8, mean residual 0".6.

* Finding Charts

* Magnitudes Graph

        m1 = 8.0 + 5 log d + 8.5 log r

---------------------------------------------------------------------

The orbital elements are published on M.P.E.C. 2020-U96.
The charts are made with StellaNavigator Ver.10 (AstroArts).
The magnitudes graphs are made with Comet for Windows.

---------------------------------------------------------------------

Copyright(C) Seiichi Yoshida (comet@aerith.net). All rights reserved.